SCP
1 1 1 1 0 0 1 1 1 1 1 1 1 1 1 1 1 1 0 0 0 0 0 0 0 1 1 1 1 1 0 0 0 0 0 0 1 1 2 2 1 1 0
1 1 1 1 0 0 0 1 1 1 1 1 1 1 1 1 1 1 0 0 0 0 0 0 0 1 1 1 1 0 0 0 0 0 0 0 1 1 2 1 1 1 1
0 1 1 1 1 1 1 1 1 1 1 1 0 0 1 1 1 0 0 0 0 0 0 0 0 0 1 1 1 0 0 0 1 1 0 0 0 1 1 1 1 1 1
0 1 1 1 1 1 1 1 1 1 1 0 0 0 0 1 1 0 0 0 0 0 0 0 0 0 1 1 1 0 0 0 1 1 1 0 0 0 0 0 0 1 1
0 0 1 1 1 1 1 1 1 1 1 0 0 0 0 0 0 0 0 0 0 0 0 0 0 0 0 0 1 0 0 0 1 1 0 0 0 0 0 0 1 1 1
0 0 1 1 1 1 1 1 1 1 0 0 0 0 0 0 0 0 0 0 0 0 0 0 0 0 0 0 0 0 0 0 1 0 0 0 0 0 1 1 1 1 1
1 0 1 1 0 0 0 1 1 1 0 0 0 0 0 0 0 0 0 0 0 0 0 0 0 0 0 0 0 0 0 1 1 0 0 0 1 1 1 1 1 1 1
1 1 1 1 0 0 0 1 1 1 0 0 0 0 0 0 0 0 0 0 0 0 0 0 0 0 0 0 0 0 0 1 1 0 0 0 1 1 1 1 1 1 1
0 0 0 0 0 0 0 1 0 0 0 0 0 0 0 0 0 0 0 0 0 0 0 0 0 1 0 0 1 1 1 1 1 0 0 0 1 1 0 1 1 1 1
0 0 0 0 0 0 0 0 0 0 0 0 0 0 0 0 0 0 0 0 0 0 0 0 0 0 0 0 1 1 1 1 1 0 0 1 1 1 0 0 1 1 1
0 0 0 0 0 0 0 0 0 0 0 0 0 0 0 0 0 0 0 0 0 0 0 0 0 0 0 0 0 1 1 1 1 1 0 1 1 1 0 0 0 1 1
0 0 0 0 0 0 0 0 0 0 0 0 0 0 0 0 0 0 0 0 0 0 0 0 0 0 0 0 0 0 0 0 1 1 1 1 1 1 0 0 0 1 1
0 0 0 0 0 0 0 0 0 0 0 0 0 0 0 0 0 0 0 0 0 0 0 0 0 0 0 0 0 0 0 0 0 0 1 1 1 1 1 0 0 0 0
0 0 0 0 0 0 0 0 0 0 0 0 0 0 0 0 0 0 0 0 0 0 0 0 0 0 0 0 0 0 0 0 0 0 1 1 1 1 1 1 1 0 0
0 0 0 0 0 0 0 0 0 0 0 0 0 0 0 0 0 0 0 0 0 0 0 0 0 0 0 0 0 0 0 0 0 0 1 1 1 1 1 1 1 1 1
0 0 0 0 0 0 0 0 0 0 0 0 0 0 0 0 0 0 0 0 0 0 0 0 0 0 0 0 0 1 1 0 0 1 1 1 1 1 1 1 1 1 1
0 0 0 0 0 0 0 0 0 0 0 0 0 0 0 0 0 0 0 0 0 0 0 0 0 0 0 0 0 1 1 1 1 1 1 1 1 1 1 1 1 1 1
0 0 0 0 0 0 0 0 0 0 0 0 0 0 0 0 0 0 0 0 0 0 0 0 0 0 0 0 0 0 1 1 1 0 0 0 0 1 1 1 1 1 1
0 0 0 0 0 0 0 0 0 0 0 0 0 0 0 0 0 0 0 0 0 0 0 0 0 0 0 0 0 0 0 0 0 0 0 0 0 0 0 1 1 1 1
0 0 0 0 0 0 0 0 0 0 0 0 0 0 0 0 0 0 0 0 0 0 0 0 0 0 0 0 0 0 0 0 0 0 0 0 0 0 0 0 0 0 0
0 0 0 0 0 0 0 0 0 0 0 0 0 0 0 0 0 0 0 0 0 0 0 0 0 0 0 0 0 0 0 0 0 0 0 0 0 0 0 0 0 0 0
0 0 0 0 0 0 0 0 0 0 0 0 0 0 0 0 0 0 0 0 0 0 0 0 0 0 0 0 0 0 0 0 0 0 0 0 0 0 0 0 0 0 0
1 1 0 0 0 0 0 0 0 0 0 0 0 0 0 0 0 0 0 0 0 0 0 0 0 0 0 0 0 0 0 0 0 0 0 0 0 0 0 0 0 0 0
1 1 1 0 0 0 0 0 0 0 0 0 0 0 0 0 0 0 0 0 0 0 0 0 0 0 0 0 0 0 0 0 0 0 0 0 0 0 0 0 0 0 0
1 1 1 0 0 0 0 0 0 0 0 0 0 0 0 0 0 0 0 0 0 0 0 0 0 0 0 0 0 0 0 0 0 0 0 0 0 0 0 0 0 0 0
1 1 1 1 0 0 0 0 0 0 0 0 0 0 0 0 0 0 0 0 0 0 0 0 0 0 0 0 0 0 0 0 0 0 0 0 0 0 0 0 0 0 0
Wind_Speed
6 7 9 10 10 9 10 10 10 11 11 11 11 11 10 10 10 10 10 9 9 9 9 9 9 9 9 9 9 9 8 8 7 7 8 8 8 8 8 8 7 6 8
8 8 10 10 9 9 9 10 11 11 11 11 11 10 10 10 10 9 9 9 9 9 8 8 9 9 9 9 9 8 7 7 6 5 6 7 8 9 9 9 8 5 8
9 9 9 10 9 9 10 10 10 11 11 11 10 10 10 10 10 9 9 9 9 8 8 8 8 8 8 8 8 7 6 5 5 4 4 4 6 10 10 9 8 8 8
9 9 9 10 10 10 10 10 11 11 11 11 10 10 10 10 9 9 9 9 9 8 8 8 8 8 8 8 7 6 6 5 6 6 3 5 6 10 10 9 8 8 7
10 9 9 10 10 10 11 11 11 11 10 10 10 9 9 9 9 9 9 8 8 8 8 8 8 8 8 7 7 6 5 6 6 5 5 6 6 9 10 9 8 8 8
10 9 9 10 10 11 11 11 11 10 10 10 9 9 8 9 9 9 8 9 8 8 8 8 8 8 8 7 7 6 6 6 5 3 5 5 5 9 10 9 9 8 8
9 9 9 10 10 10 10 10 10 10 10 9 9 8 8 8 8 9 9 9 9 9 8 8 8 8 8 8 7 6 6 6 3 4 5 5 6 9 9 9 8 8 8
9 9 9 10 11 10 10 10 10 10 9 8 8 7 7 8 8 8 9 9 9 8 8 8 8 8 8 7 7 6 6 6 5 5 5 5 8 9 9 9 8 8 7
7 8 7 8 9 10 11 10 9 8 7 6 6 6 6 6 7 8 8 8 8 8 8 7 7 7 7 6 6 5 6 7 4 3 6 5 8 9 8 8 8 7 7
5 6 6 7 7 7 7 8 7 7 6 5 4 4 4 4 6 7 8 8 8 7 7 6 6 6 5 4 4 4 5 5 4 5 4 6 9 8 8 8 7 7 7
5 4 5 6 5 5 6 7 6 6 5 4 3 4 3 3 3 4 7 7 6 6 5 5 5 4 3 1 2 3 4 2 4 5 4 8 9 8 8 8 8 7 7
4 4 5 5 4 4 4 4 2 3 2 2 1 2 1 2 3 5 6 6 5 4 3 2 2 2 1 0 0 1 2 3 3 4 5 9 9 9 8 8 8 8 7
5 4 4 4 4 4 3 2 1 1 1 2 1 1 2 2 2 3 3 3 2 3 1 2 1 1 0 1 2 2 3 3 3 4 5 10 10 9 9 8 8 7 7
5 3 3 3 4 4 4 2 2 1 1 2 1 2 2 1 1 1 1 2 1 1 1 1 1 2 3 3 3 4 4 3 3 3 4 10 10 9 9 8 8 7 7
5 4 4 3 4 4 3 1 3 2 2 2 2 2 2 1 1 1 2 2 2 2 1 2 3 4 5 5 5 5 5 4 4 4 4 9 9 9 9 8 8 8 7
5 5 4 4 3 3 2 2 2 2 2 2 2 2 2 2 2 2 2 2 2 2 1 2 4 4 4 4 5 5 5 4 4 5 4 5 9 10 10 10 9 9 9
5 5 4 3 4 4 3 3 2 2 2 2 2 3 3 2 2 2 2 2 2 2 3 3 4 3 3 3 4 4 4 4 4 4 3 3 4 8 10 11 11 11 11
5 5 4 3 5 4 3 2 2 3 3 2 2 3 4 3 3 3 3 2 2 3 2 2 3 3 3 3 3 3 3 3 3 3 3 3 3 4 6 11 12 12 12
5 5 4 3 4 3 2 2 3 3 2 2 3 3 4 4 4 3 2 2 3 3 2 3 3 2 2 2 2 2 2 2 3 4 4 4 3 4 3 7 11 12 12
5 5 5 4 3 3 2 2 2 3 2 3 3 3 4 3 4 3 2 3 4 3 3 3 3 2 2 1 2 3 2 2 3 3 4 4 4 4 4 4 4 7 12
5 5 5 5 3 3 2 2 2 1 1 2 2 3 3 3 4 3 2 3 3 3 2 3 3 2 1 1 2 2 2 3 3 2 3 3 4 4 4 4 3 3 5
5 5 6 5 4 4 2 1 1 2 1 2 2 3 3 3 3 2 2 2 3 2 3 3 3 2 1 1 1 1 1 2 3 2 2 3 3 3 4 5 4 5 4
6 5 5 5 5 5 4 1 1 2 2 2 2 1 2 3 3 3 3 2 2 2 2 2 2 2 2 2 2 2 1 1 0 2 2 3 3 3 3 4 5 5 6
6 6 5 5 5 5 4 2 1 2 1 1 2 1 2 3 3 3 3 3 3 3 2 2 3 2 2 2 2 2 1 2 2 1 2 2 3 4 3 4 5 5 5
7 6 5 4 4 4 4 3 1 1 1 2 2 3 2 3 3 3 3 3 3 3 3 3 3 2 2 1 1 2 2 2 1 2 1 1 2 2 2 3 3 3 4
7 5 4 4 4 4 4 4 2 2 2 3 2 2 2 2 2 3 3 3 3 3 3 2 2 2 2 3 2 2 2 2 1 2 1 1 1 0 2 2 2 2 3
Wind_Direction
88 90 85 81 80 79 80 81 79 79 78 75 74 72 71 70 70 73 72 69 67 66 66 65 66 65 63 63 63 61 59 59 64 68 73 69 67 71 70 66 73 80 80
101 99 88 84 82 84 85 84 82 80 78 75 73 72 71 70 69 69 70 70 68 67 66 64 64 64 63 64 62 61 57 52 50 61 75 73 72 75 73 69 67 72 74
99 101 93 86 86 87 89 86 84 81 79 76 73 72 71 71 70 69 69 72 69 69 69 68 66 65 64 65 62 57 50 37 21 29 60 84 79 72 73 72 70 72 71
101 96 90 90 88 88 89 87 85 81 79 78 74 71 70 70 69 69 70 70 69 69 68 70 69 67 66 65 61 52 38 18 11 20 45 70 72 75 74 71 70 70 70
95 94 96 95 92 89 89 88 85 82 80 77 73 71 69 69 70 69 69 70 69 67 66 66 69 68 66 61 56 44 25 9 11 28 57 71 69 75 74 70 66 65 68
95 97 100 97 96 92 88 86 83 84 80 75 72 69 67 67 69 68 67 70 71 69 69 66 67 67 64 60 53 39 20 10 18 49 68 74 72 74 73 69 66 64 63
99 101 105 103 102 96 92 87 85 83 79 77 74 71 69 70 70 71 70 71 72 69 69 68 66 65 62 56 48 37 21 11 33 64 72 72 73 76 73 69 63 61 58
104 106 108 109 107 103 99 91 87 84 83 81 79 77 76 76 75 73 74 74 73 70 71 71 68 66 63 57 49 36 24 17 44 63 77 76 79 75 71 66 61 59 58
105 115 118 122 115 110 106 101 97 95 92 91 89 91 91 92 90 85 78 76 75 75 74 75 75 71 67 59 50 33 25 32 36 42 67 69 73 71 69 63 59 59 56
108 116 123 121 123 125 119 117 119 117 114 115 119 119 119 114 112 101 89 80 79 81 83 85 91 89 84 66 43 23 14 30 46 59 57 66 68 69 66 61 59 58 55
98 106 112 111 115 123 127 127 140 143 146 148 163 175 185 181 139 110 99 100 94 93 95 99 111 118 120 88 33 14 13 56 67 67 57 64 67 66 63 60 59 59 59
114 112 111 116 120 110 103 124 149 136 142 165 143 146 171 110 99 105 113 116 123 124 124 135 161 184 204 201 17 24 31 60 69 75 66 65 65 64 61 60 59 60 59
113 101 102 117 114 111 101 98 74 77 83 76 54 82 70 84 129 133 148 151 163 172 187 166 205 232 129 70 71 74 55 59 65 69 65 69 65 62 62 60 57 57 58
115 118 109 102 101 97 95 98 107 84 62 56 359 63 66 43 53 84 114 131 133 92 31 43 48 51 55 51 57 66 60 64 73 81 71 70 66 62 60 59 57 59 58
129 128 102 82 81 87 83 74 84 69 44 59 17 27 75 58 52 60 71 65 75 84 61 31 44 50 49 42 47 54 55 57 71 82 76 71 68 61 58 58 59 58 55
131 120 107 95 86 89 91 78 75 76 60 52 19 7 58 59 55 63 72 58 59 61 60 71 67 57 59 52 47 45 42 49 69 83 97 75 69 65 59 59 59 58 57
128 116 102 96 77 67 57 57 71 66 59 55 25 6 39 58 46 48 66 66 57 59 52 52 65 59 73 69 60 56 50 42 61 74 89 96 81 69 64 61 62 61 61
121 119 121 110 93 78 60 41 55 54 48 52 42 14 12 41 58 49 53 53 53 63 70 69 56 59 54 55 55 47 56 42 42 57 70 85 85 84 72 69 65 64 65
135 137 134 111 113 104 95 78 50 60 52 51 52 25 9 22 45 67 46 48 53 51 50 67 58 54 58 57 81 71 55 49 33 40 51 65 78 93 95 85 73 68 68
152 144 137 131 127 119 94 84 61 45 46 56 55 39 18 21 33 54 54 50 51 50 44 68 75 56 49 36 49 67 67 77 57 37 40 46 52 76 90 93 88 74 70
159 149 149 147 133 110 88 80 85 72 53 59 64 49 28 38 35 44 48 54 53 57 45 68 70 50 34 48 50 35 38 57 77 63 46 50 52 55 71 86 85 85 73
162 157 151 145 130 118 114 119 131 124 104 89 62 47 27 43 40 50 57 70 68 61 49 60 67 41 5 32 55 54 66 27 20 61 60 57 58 52 48 62 74 80 82
167 166 153 149 143 138 135 101 75 72 61 80 79 57 33 49 44 34 43 65 82 78 72 68 67 61 15 356 46 68 70 79 22 19 46 66 61 53 46 44 54 64 77
166 162 161 162 153 141 133 109 114 108 104 107 120 112 83 64 63 43 35 44 70 74 71 56 73 68 60 11 360 13 75 120 127 82 9 47 63 61 52 54 52 53 65
161 160 164 155 136 128 125 124 123 95 100 104 102 100 89 69 62 63 42 36 55 63 70 63 61 50 55 50 19 3 14 12 35 107 100 21 37 49 67 67 64 57 58
150 152 154 142 126 126 132 143 146 117 102 101 99 102 103 94 61 66 61 46 52 52 59 62 66 61 44 34 22 28 44 34 22 54 84 86 90 55 71 72 77 68 68